Location: Faicchio
(41.2833°N, 14.4833°E)
Time: 06:19:20
(UTC+00:00)

IDEFIX/ARIANE 42P - Pass Details

Date: 15 June 2025
Orbit: 780 x 798 km, 98.6° (Epoch: 16 July)

Event Time Altitude Azimuth Distance (km) Brightness Sun altitude
Rises 01:12:28 0° 7° (N) 3,308 7.0 -18.7°
Reaches altitude 10° 01:14:52 10° 3° (N) 2,373 5.9 -18.5°
Maximum altitude 01:19:54 50° 289° (WNW) 1,009 3.0 -18.0°
Enters shadow 01:22:11 30° 232° (SW) 1,398 3.3 -17.7°
